Location: Sagn�
(15.2046°N, 12.7898°W)
Time: 13:48:01
(UTC+00:00)

YAOGAN 1 - Pass Details

Date: 08 May 2021
Orbit: 618 x 620 km, 97.9° (Epoch: 14 June)

Event Time Altitude Azimuth Distance (km) Brightness Sun altitude
Rises 20:15:32 0° 180° (S) 2,883 5.8 -15.5°
Reaches altitude 10° 20:17:47 10° 186° (S) 1,978 5.0 -16.0°
Maximum altitude 20:21:54 45° 259° (W) 843 3.6 -16.9°
Drops below altitude 10° 20:26:02 10° 333° (NNW) 1,981 5.9 -17.8°
Sets 20:28:18 0° 339° (NNW) 2,888 6.7 -18.3°
